{"data":{"norad_id":67953,"intl_designator":"2026-037X","name":"STARLINK-36824","alt_names":[],"object_type":"PAYLOAD","status":"ACTIVE","operator":null,"country":"US","launch_date":"2026-02-24","launch_site_code":"AFETR","launch_vehicle":null,"mission":null,"orbit_class":"UNKNOWN","rcs_meters":null,"size_class":null,"mass_kg":null,"dimensions":null,"purposes":["comms"],"wikipedia_slug":null,"has_3d_model":false,"image_url":null,"decayed_at":null,"tle_current":{"epoch":"2026-05-25T05:35:20.616000Z","epoch_age_seconds":51063,"freshness":"FRESH","line1":"1 67953U 26037X   26145.23287750  .00007764  00000+0  29145-3 0  9997","line2":"2 67953  43.0018 118.7487 0001449 265.2718  94.7968 15.27568081 15049","mean_motion":15.27568081,"eccentricity":0.0001449,"inclination_deg":43.0018,"raan_deg":118.7487,"arg_perigee_deg":265.2718,"mean_anomaly_deg":94.7968,"bstar":0.00029145,"rev_number":1504,"period_min":94.267484239218,"perigee_km":482.09059500875,"apogee_km":484.07897708235,"semimajor_km":6861.2217860456,"source":"CELESTRAK","updated_at":"2026-05-25T13:38:21.770735Z"}}}